DW8913 Weather Reports


time (UTC)temp
F
wind
direction
speed
knots
gust
knots
rain 1hr
in
rain 24hr
in
rain mn
in
humidity
%
barometer
mb
20260508054514 51 102 0.0 1.7 0.00 0.02 0.00 86 1009.8
20260508053101 50 101 0.0 1.7 0.00 0.02 0.00 86 1009.8
20260508051530 50 123 0.0 0.9 0.00 0.02 0.00 86 1009.8
20260508050003 50 122 0.0 0.0 0.00 0.02 0.00 86 1009.9
20260508044548 50 123 0.0 0.0 0.00 0.02 0.00 87 1009.9
20260508043017 50 124 0.0 0.0 0.00 0.02 0.00 87 1009.8
20260508041558 50 124 0.0 0.9 0.00 0.02 0.00 87 1009.8
20260508040025 51 122 0.0 0.9 0.00 0.02 0.00 87 1009.7
20260508034612 51 115 0.0 2.6 0.00 0.02 0.02 87 1009.6
20260508033048 51 129 0.0 0.9 0.00 0.02 0.02 86 1009.6
20260508031508 51 40 0.0 0.9 0.00 0.02 0.02 86 1009.8
20260508030053 51 96 0.0 0.0 0.00 0.02 0.02 85 1009.7
20260508024524 51 116 0.0 1.7 0.00 0.02 0.02 85 1009.8
20260508023103 51 117 0.0 1.7 0.00 0.02 0.02 84 1009.7
20260508021538 52 155 0.0 1.7 0.00 0.02 0.02 85 1009.9
20260508020001 52 141 0.0 0.9 0.00 0.02 0.02 86 1009.7
20260508014545 52 190 0.0 0.9 0.00 0.02 0.02 85 1009.6
20260508013013 52 99 0.0 0.9 0.00 0.02 0.02 82 1009.6
20260508011556 53 154 0.0 1.7 0.00 0.02 0.02 81 1009.3
20260508010046 53 109 0.0 2.6 0.00 0.02 0.02 80 1009.0
20260508004612 53 163 0.0 0.9 0.00 0.02 0.02 80 1009.0
20260508003044 53 92 0.9 4.3 0.00 0.02 0.02 81 1008.9
20260508001515 54 154 0.0 2.6 0.00 0.02 0.02 80 1008.6
20260508000056 54 125 0.0 2.6 0.00 0.02 0.02 78 1008.5
20260507234524 54 111 0.0 2.6 0.00 0.02 0.02 77 1008.7
20260507233105 54 158 0.0 5.2 0.00 0.02 0.02 77 1008.5
20260507231541 55 87 0.9 7.8 0.00 0.02 0.02 75 1008.4
20260507230026 56 130 0.9 4.3 0.00 0.02 0.02 74 1008.4
20260507224554 56 120 0.0 2.6 0.00 0.02 0.02 70 1007.9
20260507223040 57 158 0.0 3.5 0.00 0.02 0.02 71 1008.2
20260507221603 57 246 0.9 4.3 0.00 0.02 0.02 71 1008.1
20260507220033 57 140 0.9 5.2 0.00 0.02 0.02 72 1008.4
20260507214510 56 124 0.9 5.2 0.00 0.02 0.02 74 1008.6
20260507213111 56 83 0.0 4.3 0.00 0.02 0.02 78 1008.5
20260507211523 56 113 0.9 5.2 0.00 0.02 0.02 80 1008.1
20260507210105 56 114 0.9 4.3 0.00 0.02 0.02 78 1008.2
20260507204533 56 214 0.9 5.2 0.00 0.02 0.02 77 1008.2
20260507203005 57 118 0.0 4.3 0.00 0.02 0.02 77 1008.1
20260507201559 56 160 0.9 3.5 0.01 0.02 0.02 75 1007.9
20260507200029 57 162 1.7 5.2 0.01 0.02 0.02 75 1008.4
20260507194602 57 143 0.0 3.5 0.01 0.02 0.02 79 1008.2
20260507193042 56 168 0.0 2.6 0.01 0.02 0.02 76 1008.4
20260507191503 56 134 0.9 4.3 0.00 0.01 0.01 74 1008.4
20260507190050 57 307 0.0 2.6 0.00 0.01 0.01 73 1009.0
20260507184515 57 214 0.0 2.6 0.00 0.01 0.01 74 1009.0
20260507183057 58 216 0.9 3.5 0.00 0.01 0.01 71 1008.9
20260507181532 58 82 0.9 4.3 0.00 0.01 0.01 68 1008.8
20260507180108 59 199 1.7 5.2 0.00 0.01 0.01 66 1009.3
20260507174551 60 203 0.9 4.3 0.00 0.01 0.01 67 1009.3
20260507173015 60 79 0.0 4.3 0.00 0.01 0.01 67 1009.7
20260507171601 60 155 0.0 3.5 0.00 0.01 0.01 65 1009.7
20260507170022 60 82 0.0 2.6 0.00 0.01 0.01 67 1009.7
20260507164606 59 281 0.0 1.7 0.00 0.01 0.01 68 1010.1
20260507163042 58 217 0.0 0.9 0.00 0.01 0.01 67 1010.4
20260507161513 57 24 0.0 2.6 0.00 0.01 0.01 66 1010.5
20260507160053 58 248 0.0 1.7 0.00 0.01 0.01 65 1010.5
20260507154520 58 108 0.9 3.5 0.00 0.01 0.01 64 1010.7
20260507153115 57 56 0.9 4.3 0.00 0.01 0.01 65 1011.0
20260507151531 58 244 0.0 2.6 0.00 0.01 0.01 64 1011.2
20260507150002 57 191 0.0 4.3 0.00 0.01 0.01 66 1011.0
20260507144544 57 68 1.7 6.1 0.00 0.01 0.01 66 1011.0
20260507143018 57 226 1.7 6.1 0.00 0.01 0.01 66 1011.0
20260507141557 57 75 1.7 9.6 0.00 0.01 0.01 68 1011.1
20260507140030 56 351 0.9 6.1 0.00 0.01 0.01 69 1011.2
20260507134621 56 237 1.7 4.3 0.00 0.01 0.01 72 1011.3
20260507133040 55 323 1.7 5.2 0.00 0.01 0.01 74 1011.2
20260507131524 54 150 0.0 2.6 0.00 0.01 0.01 76 1011.2
20260507130110 54 39 0.0 4.3 0.00 0.01 0.01 78 1011.4
20260507124525 54 314 0.0 2.6 0.00 0.01 0.01 79 1011.1
20260507123110 53 45 0.0 5.2 0.00 0.01 0.01 79 1011.1
20260507121531 53 56 0.9 4.3 0.00 0.01 0.01 80 1011.0
20260507120006 53 51 0.9 5.2 0.00 0.01 0.01 80 1011.0
20260507114545 53 38 0.0 3.5 0.00 0.01 0.01 80 1010.8
20260507113018 53 78 0.0 6.1 0.00 0.01 0.01 80 1010.7
20260507111556 53 77 0.0 4.3 0.00 0.01 0.01 81 1010.8
20260507110028 53 34 0.9 3.5 0.00 0.01 0.01 81 1010.9
20260507104502 53 3 0.9 6.1 0.00 0.01 0.01 82 1010.7
20260507103042 53 342 0.0 1.7 0.00 0.01 0.01 84 1010.3
20260507101513 53 58 0.9 7.8 0.00 0.01 0.01 81 1010.1
20260507094521 53 25 1.7 6.1 0.00 0.01 0.01 81 1009.7
20260507093103 53 44 2.6 7.0 0.00 0.01 0.01 82 1009.3
20260507091535 53 36 2.6 9.6 0.00 0.01 0.01 82 1009.5
20260507090007 54 253 1.7 7.8 0.00 0.01 0.01 85 1009.4
20260507084550 54 52 2.6 9.6 0.00 0.01 0.01 86 1009.1
20260507083019 55 309 2.6 8.7 0.00 0.01 0.01 86 1009.0
20260507081604 55 51 3.5 10.4 0.01 0.01 0.01 85 1008.8
20260507080030 56 357 3.5 12.2 0.01 0.01 0.01 86 1008.4
20260507074504 57 18 2.6 7.0 0.01 0.01 0.01 88 1008.2
20260507073054 58 199 0.9 9.6 0.01 0.01 0.01 88 1007.7
20260507071515 62 316 1.7 7.8 0.00 0.00 0.00 88 1008.1
20260507070106 63 37 0.9 5.2 0.00 0.00 0.00 87 1007.7
20260507064537 64 13 0.0 2.6 0.00 0.00 0.00 87 1007.8
20260507063001 64 262 0.9 3.5 0.00 0.00 0.00 87 1007.6
20260507061544 63 249 0.9 3.5 0.00 0.00 0.00 89 1007.4
20260507060020 62 91 0.0 0.0 0.00 0.00 0.00 87 1007.5